Location: Beugnon
(47.6222°N, 3.7850°E)
Time: 22:51:23
(UTC+00:00)

MOS 1-B Rocket - Pass Details

Date: 09 April 2020
Orbit: 891 x 1605 km, 99.1° (Epoch: 04 June)

Event Time Altitude Azimuth Distance (km) Brightness Sun altitude
Rises 23:34:11 0° 15° (NNE) 3,699 8.0 -34.3°
Reaches altitude 10° 23:36:30 10° 16° (NNE) 2,813 7.1 -34.3°
Enters shadow 23:41:54 68° 30° (NNE) 1,193 4.4 -34.3°
